DLH2PN EGLL-EDDM

Flight info

Callsign DLH2PN
Flight time 1h 15m
Altitude 37000
Route DET L6 DVR UL9 KONAN UL607 SPI DCT MOVUM T109 HAREM T104 ROKIL ROKIL1A
Aircraft A21N/M-SDE2E3FGIJ1LORWXYZ/HB1

Departure

Time 2026-05-06 10:12
Airport London Heathrow Airport (EGLL)

Arrival

Time 2026-05-06 11:28
Airport Munich Airport (EDDM)
Time Latitude Longitude Altitude Speed Heading
2026-05-06 09:48 51.46938 -0.44214 92 ft 0 kts 270°
2026-05-06 09:57 51.46938 -0.44195 91 ft 2 kts 270°
2026-05-06 09:58 51.46938 -0.44171 91 ft 2 kts 270°
2026-05-06 09:58 51.46938 -0.44147 90 ft 2 kts 270°
2026-05-06 09:58 51.46938 -0.44123 89 ft 2 kts 270°
2026-05-06 09:58 51.46939 -0.44099 88 ft 2 kts 269°
2026-05-06 09:59 51.46939 -0.44083 87 ft 2 kts 270°
2026-05-06 09:59 51.46944 -0.44062 87 ft 2 kts 214°
2026-05-06 09:59 51.46954 -0.44056 86 ft 1 kts 181°
2026-05-06 09:59 51.46962 -0.44057 86 ft 0 kts 179°
2026-05-06 10:01 51.46953 -0.44056 86 ft 2 kts 179°
2026-05-06 10:01 51.46928 -0.44055 86 ft 4 kts 179°
2026-05-06 10:02 51.46891 -0.44055 86 ft 7 kts 180°
2026-05-06 10:02 51.46830 -0.44054 86 ft 9 kts 180°
2026-05-06 10:02 51.46757 -0.44055 86 ft 11 kts 181°
2026-05-06 10:02 51.46675 -0.44085 86 ft 13 kts 237°
2026-05-06 10:03 51.46665 -0.44228 87 ft 13 kts 270°
2026-05-06 10:03 51.46665 -0.44385 87 ft 15 kts 270°
2026-05-06 10:03 51.46664 -0.44566 89 ft 15 kts 270°
2026-05-06 10:03 51.46664 -0.44739 91 ft 15 kts 270°
2026-05-06 10:04 51.46663 -0.44913 92 ft 15 kts 270°
2026-05-06 10:04 51.46664 -0.45086 94 ft 15 kts 269°
2026-05-06 10:04 51.46662 -0.45271 92 ft 18 kts 270°
2026-05-06 10:04 51.46662 -0.45466 88 ft 21 kts 271°
2026-05-06 10:05 51.46661 -0.45731 84 ft 20 kts 270°
2026-05-06 10:05 51.46660 -0.45920 84 ft 17 kts 269°
2026-05-06 10:05 51.46658 -0.46116 84 ft 17 kts 270°
2026-05-06 10:05 51.46658 -0.46324 81 ft 18 kts 270°
2026-05-06 10:06 51.46657 -0.46538 80 ft 19 kts 269°
2026-05-06 10:06 51.46657 -0.46775 78 ft 21 kts 270°
2026-05-06 10:06 51.46656 -0.47020 78 ft 22 kts 270°
2026-05-06 10:06 51.46655 -0.47268 78 ft 22 kts 270°
2026-05-06 10:07 51.46655 -0.47512 81 ft 21 kts 270°
2026-05-06 10:07 51.46653 -0.47754 81 ft 21 kts 270°
2026-05-06 10:07 51.46653 -0.47948 81 ft 14 kts 270°
2026-05-06 10:07 51.46652 -0.48087 81 ft 4 kts 270°
2026-05-06 10:08 51.46652 -0.48088 81 ft 0 kts 270°
2026-05-06 10:09 51.46652 -0.48093 81 ft 1 kts 270°
2026-05-06 10:09 51.46652 -0.48100 81 ft 0 kts 270°
2026-05-06 10:10 51.46652 -0.48117 81 ft 3 kts 270°
2026-05-06 10:10 51.46643 -0.48187 80 ft 9 kts 237°
2026-05-06 10:11 51.46557 -0.48215 78 ft 16 kts 179°
2026-05-06 10:11 51.46475 -0.48163 78 ft 10 kts 93°
2026-05-06 10:11 51.46478 -0.48019 78 ft 22 kts 88°
2026-05-06 10:11 51.46485 -0.47375 79 ft 95 kts 91°
2026-05-06 10:12 51.46487 -0.45959 87 ft 155 kts 88°
2026-05-06 10:12 51.46479 -0.44116 487 ft 170 kts 85°
2026-05-06 10:12 51.46497 -0.42285 1167 ft 173 kts 90°
2026-05-06 10:12 51.46292 -0.40299 1709 ft 193 kts 108°
2026-05-06 10:13 51.45526 -0.38407 2239 ft 212 kts 126°
2026-05-06 10:13 51.44679 -0.36394 2644 ft 227 kts 117°
2026-05-06 10:13 51.44003 -0.34029 3061 ft 243 kts 108°
2026-05-06 10:13 51.43418 -0.31452 3532 ft 257 kts 107°
2026-05-06 10:14 51.42876 -0.28912 3944 ft 272 kts 106°
2026-05-06 10:14 51.42344 -0.25861 4644 ft 278 kts 99°
2026-05-06 10:14 51.41957 -0.22846 5389 ft 282 kts 98°
2026-05-06 10:14 51.41604 -0.19976 6061 ft 287 kts 99°
2026-05-06 10:15 51.41198 -0.16813 6791 ft 293 kts 101°
2026-05-06 10:15 51.40824 -0.13994 7423 ft 298 kts 102°
2026-05-06 10:15 51.40344 -0.10499 8216 ft 303 kts 102°
2026-05-06 10:15 51.39944 -0.07607 8872 ft 307 kts 103°
2026-05-06 10:16 51.39462 -0.04145 9641 ft 311 kts 103°
2026-05-06 10:16 51.38991 -0.00761 10364 ft 315 kts 104°
2026-05-06 10:16 51.38497 0.02768 10922 ft 326 kts 104°
2026-05-06 10:16 51.38004 0.06290 11576 ft 331 kts 105°
2026-05-06 10:17 51.37510 0.09825 12284 ft 334 kts 105°
2026-05-06 10:17 51.37003 0.13426 12949 ft 338 kts 105°
2026-05-06 10:17 51.36503 0.16974 13543 ft 343 kts 105°
2026-05-06 10:17 51.35971 0.20747 14154 ft 348 kts 106°
2026-05-06 10:18 51.35452 0.24423 14733 ft 353 kts 106°
2026-05-06 10:18 51.34904 0.28293 15322 ft 358 kts 106°
2026-05-06 10:18 51.34353 0.32176 15890 ft 363 kts 106°
2026-05-06 10:18 51.33789 0.36129 16449 ft 368 kts 107°
2026-05-06 10:19 51.33221 0.40107 16993 ft 373 kts 107°
2026-05-06 10:19 51.32638 0.44171 17531 ft 378 kts 107°
2026-05-06 10:19 51.32054 0.48241 17889 ft 382 kts 107°
2026-05-06 10:19 51.31453 0.52419 17965 ft 384 kts 107°
2026-05-06 10:20 51.30857 0.56551 17973 ft 383 kts 107°
2026-05-06 10:20 51.30236 0.60633 17974 ft 382 kts 109°
2026-05-06 10:20 51.29522 0.64691 17975 ft 382 kts 110°
2026-05-06 10:20 51.28784 0.68733 17974 ft 381 kts 111°
2026-05-06 10:21 51.28030 0.72833 17973 ft 381 kts 111°
2026-05-06 10:21 51.27285 0.76871 17973 ft 381 kts 111°
2026-05-06 10:21 51.26555 0.80832 17973 ft 381 kts 111°
2026-05-06 10:21 51.25807 0.84885 17973 ft 381 kts 111°
2026-05-06 10:22 51.25053 0.88967 17973 ft 382 kts 111°
2026-05-06 10:22 51.24308 0.92995 17973 ft 382 kts 111°
2026-05-06 10:22 51.23547 0.97097 17994 ft 384 kts 111°
2026-05-06 10:22 51.22782 1.01207 18378 ft 389 kts 111°
2026-05-06 10:23 51.22021 1.05305 19027 ft 389 kts 112°
2026-05-06 10:23 51.21247 1.09461 19587 ft 391 kts 112°
2026-05-06 10:23 51.20467 1.13627 20092 ft 394 kts 112°
2026-05-06 10:23 51.19688 1.17777 20585 ft 398 kts 112°
2026-05-06 10:24 51.18888 1.22019 21078 ft 401 kts 112°
2026-05-06 10:24 51.18077 1.26319 21548 ft 405 kts 113°
2026-05-06 10:24 51.17260 1.30642 21993 ft 409 kts 113°
2026-05-06 10:24 51.16533 1.35020 22415 ft 417 kts 108°
2026-05-06 10:25 51.16046 1.39610 22835 ft 425 kts 101°
2026-05-06 10:25 51.15782 1.44214 23243 ft 430 kts 98°
2026-05-06 10:25 51.15576 1.49012 23666 ft 434 kts 98°
2026-05-06 10:25 51.15381 1.53788 24235 ft 433 kts 98°
2026-05-06 10:26 51.15173 1.58582 24707 ft 434 kts 98°
2026-05-06 10:26 51.14948 1.63413 25090 ft 438 kts 98°
2026-05-06 10:26 51.14721 1.68074 25440 ft 442 kts 99°
2026-05-06 10:26 51.14476 1.73021 25808 ft 445 kts 99°
2026-05-06 10:27 51.14224 1.78006 26164 ft 449 kts 99°
2026-05-06 10:27 51.13975 1.82885 26498 ft 452 kts 100°
2026-05-06 10:27 51.13718 1.87866 26832 ft 456 kts 100°
2026-05-06 10:27 51.13450 1.93006 27169 ft 459 kts 100°
2026-05-06 10:28 51.13196 1.97869 27481 ft 463 kts 100°
2026-05-06 10:28 51.12955 2.02471 27773 ft 466 kts 99°
2026-05-06 10:28 51.12671 2.07893 28112 ft 469 kts 99°
2026-05-06 10:28 51.12398 2.13065 28431 ft 473 kts 99°
2026-05-06 10:29 51.12130 2.18070 28735 ft 476 kts 100°
2026-05-06 10:29 51.11902 2.22272 28986 ft 479 kts 100°
2026-05-06 10:29 51.11308 2.33075 29615 ft 486 kts 100°
2026-05-06 10:30 51.11008 2.38447 29920 ft 489 kts 100°
2026-05-06 10:30 51.10704 2.43827 30219 ft 492 kts 100°
2026-05-06 10:30 51.10396 2.49246 30515 ft 496 kts 100°
2026-05-06 10:30 51.10082 2.54714 30809 ft 499 kts 100°
2026-05-06 10:31 51.09756 2.60154 31095 ft 501 kts 101°
2026-05-06 10:31 51.09321 2.65083 31356 ft 501 kts 107°
2026-05-06 10:31 51.08781 2.69322 31569 ft 500 kts 111°
2026-05-06 10:32 51.06910 2.79941 32102 ft 501 kts 115°
2026-05-06 10:32 51.05695 2.86377 32406 ft 505 kts 115°
2026-05-06 10:32 51.04676 2.91811 32659 ft 508 kts 114°
2026-05-06 10:32 51.03671 2.97209 32881 ft 512 kts 114°
2026-05-06 10:33 51.02638 3.02781 33101 ft 515 kts 113°
2026-05-06 10:33 51.01627 3.08251 33332 ft 519 kts 112°
2026-05-06 10:33 51.00614 3.13732 33575 ft 521 kts 112°
2026-05-06 10:33 50.99599 3.19244 33835 ft 523 kts 111°
2026-05-06 10:34 50.98566 3.24837 34113 ft 525 kts 111°
2026-05-06 10:34 50.97527 3.30442 34475 ft 524 kts 111°
2026-05-06 10:34 50.96500 3.35963 34903 ft 521 kts 111°
2026-05-06 10:34 50.95472 3.41465 35330 ft 518 kts 111°
2026-05-06 10:35 50.94446 3.46929 35729 ft 515 kts 111°
2026-05-06 10:35 50.93428 3.52327 36101 ft 513 kts 111°
2026-05-06 10:35 50.92408 3.57712 36454 ft 511 kts 110°
2026-05-06 10:35 50.91384 3.63113 36781 ft 509 kts 110°
2026-05-06 10:36 50.90361 3.68493 36890 ft 509 kts 111°
2026-05-06 10:36 50.89325 3.73896 36896 ft 507 kts 111°
2026-05-06 10:36 50.87242 3.84554 36901 ft 504 kts 111°
2026-05-06 10:37 50.85179 3.95110 36901 ft 503 kts 111°
2026-05-06 10:37 50.83095 4.05760 36899 ft 503 kts 111°
2026-05-06 10:38 50.81014 4.16350 36900 ft 503 kts 111°
2026-05-06 10:38 50.78933 4.26884 36900 ft 503 kts 111°
2026-05-06 10:39 50.76840 4.37420 36900 ft 503 kts 111°
2026-05-06 10:39 50.74728 4.47997 36900 ft 503 kts 111°
2026-05-06 10:40 50.72606 4.58555 36900 ft 505 kts 111°
2026-05-06 10:40 50.70558 4.68999 36898 ft 505 kts 111°
2026-05-06 10:41 50.68548 4.79480 36899 ft 505 kts 111°
2026-05-06 10:41 50.66489 4.90031 36896 ft 505 kts 110°
2026-05-06 10:42 50.64360 5.00560 36889 ft 504 kts 111°
2026-05-06 10:42 50.62192 5.11037 36882 ft 504 kts 111°
2026-05-06 10:43 50.60012 5.21569 36876 ft 504 kts 110°
2026-05-06 10:44 50.56744 5.37268 36874 ft 504 kts 110°
2026-05-06 10:44 50.54549 5.47748 36873 ft 504 kts 110°
2026-05-06 10:45 50.52344 5.58214 36873 ft 504 kts 110°
2026-05-06 10:45 50.50288 5.68756 36872 ft 505 kts 108°
2026-05-06 10:46 50.48375 5.79427 36873 ft 505 kts 108°
2026-05-06 10:46 50.46466 5.89997 36870 ft 505 kts 108°
2026-05-06 10:47 50.44519 6.00652 36862 ft 505 kts 108°
2026-05-06 10:47 50.42568 6.11237 36854 ft 505 kts 108°
2026-05-06 10:48 50.40612 6.21797 36851 ft 505 kts 109°
2026-05-06 10:48 50.38647 6.32343 36848 ft 504 kts 109°
2026-05-06 10:49 50.36683 6.42803 36844 ft 504 kts 109°
2026-05-06 10:49 50.34704 6.53297 36838 ft 504 kts 109°
2026-05-06 10:50 50.32714 6.63789 36828 ft 509 kts 109°
2026-05-06 10:50 50.30681 6.74464 36814 ft 521 kts 109°
2026-05-06 10:51 50.28579 6.85443 36803 ft 532 kts 109°
2026-05-06 10:51 50.26431 6.96588 36796 ft 538 kts 109°
2026-05-06 10:52 50.24274 7.07696 36785 ft 522 kts 109°
2026-05-06 10:52 50.23231 7.13045 36784 ft 510 kts 108°
2026-05-06 10:52 50.22192 7.18359 36788 ft 509 kts 108°
2026-05-06 10:53 50.20116 7.28936 36791 ft 510 kts 108°
2026-05-06 10:53 50.18033 7.39517 36792 ft 510 kts 108°
2026-05-06 10:54 50.15944 7.50058 36792 ft 510 kts 108°
2026-05-06 10:54 50.13873 7.60447 36793 ft 510 kts 108°
2026-05-06 10:55 50.11750 7.71059 36790 ft 510 kts 109°
2026-05-06 10:55 50.09710 7.81206 36793 ft 510 kts 109°
2026-05-06 10:56 50.07579 7.91725 36798 ft 510 kts 109°
2026-05-06 10:56 50.05439 8.02232 36805 ft 510 kts 109°
2026-05-06 10:57 50.03273 8.12806 36809 ft 510 kts 109°
2026-05-06 10:57 50.01141 8.23152 36811 ft 509 kts 109°
2026-05-06 10:58 49.99001 8.33481 36812 ft 509 kts 109°
2026-05-06 10:58 49.96854 8.43789 36812 ft 509 kts 109°
2026-05-06 10:59 49.94422 8.53872 36399 ft 507 kts 117°
2026-05-06 10:59 49.92875 8.58706 36027 ft 501 kts 122°
2026-05-06 10:59 49.91145 8.63415 35650 ft 496 kts 124°
2026-05-06 10:59 49.89444 8.67886 35280 ft 494 kts 125°
2026-05-06 11:00 49.87706 8.72467 34906 ft 495 kts 124°
2026-05-06 11:00 49.85963 8.77118 34528 ft 496 kts 124°
2026-05-06 11:00 49.84245 8.81729 34155 ft 496 kts 124°
2026-05-06 11:00 49.82555 8.86272 33787 ft 497 kts 124°
2026-05-06 11:01 49.80832 8.90901 33413 ft 497 kts 123°
2026-05-06 11:01 49.79102 8.95532 33037 ft 498 kts 123°
2026-05-06 11:01 49.77433 8.99992 32676 ft 498 kts 123°
2026-05-06 11:01 49.75769 9.04438 32314 ft 495 kts 123°
2026-05-06 11:02 49.74057 9.09010 31939 ft 493 kts 122°
2026-05-06 11:02 49.72448 9.13303 31587 ft 490 kts 122°
2026-05-06 11:02 49.70729 9.17882 31208 ft 487 kts 122°
2026-05-06 11:02 49.69062 9.22321 30838 ft 483 kts 123°
2026-05-06 11:03 49.67422 9.26673 30473 ft 480 kts 123°
2026-05-06 11:03 49.65764 9.31059 30101 ft 476 kts 123°
2026-05-06 11:03 49.64096 9.35465 29725 ft 472 kts 123°
2026-05-06 11:03 49.62375 9.39711 29350 ft 466 kts 127°
2026-05-06 11:04 49.60492 9.43742 28973 ft 460 kts 132°
2026-05-06 11:04 49.58516 9.47417 28607 ft 454 kts 136°
2026-05-06 11:04 49.56427 9.51062 28187 ft 451 kts 137°
2026-05-06 11:04 49.54350 9.54649 27762 ft 447 kts 137°
2026-05-06 11:05 49.52321 9.58160 27343 ft 444 kts 136°
2026-05-06 11:05 49.50271 9.61723 26916 ft 441 kts 136°
2026-05-06 11:05 49.48286 9.65181 26499 ft 438 kts 137°
2026-05-06 11:05 49.46304 9.68652 26076 ft 435 kts 137°
2026-05-06 11:06 49.44318 9.72130 25650 ft 431 kts 137°
2026-05-06 11:06 49.42344 9.75575 25224 ft 427 kts 137°
2026-05-06 11:06 49.40409 9.78941 24804 ft 424 kts 137°
2026-05-06 11:06 49.38468 9.82309 24380 ft 420 kts 137°
2026-05-06 11:07 49.36533 9.85662 23953 ft 417 kts 137°
2026-05-06 11:07 49.34629 9.88950 23530 ft 413 kts 137°
2026-05-06 11:07 49.32758 9.92177 23111 ft 410 kts 137°
2026-05-06 11:07 49.30962 9.95270 22754 ft 406 kts 137°
2026-05-06 11:08 49.29106 9.98467 22491 ft 398 kts 137°
2026-05-06 11:08 49.27316 10.01545 22182 ft 392 kts 137°
2026-05-06 11:08 49.25528 10.04611 21835 ft 388 kts 137°
2026-05-06 11:08 49.23736 10.07680 21485 ft 385 kts 137°
2026-05-06 11:09 49.21944 10.10742 21132 ft 382 kts 137°
2026-05-06 11:09 49.20182 10.13754 20783 ft 380 kts 137°
2026-05-06 11:09 49.18427 10.16755 20433 ft 376 kts 137°
2026-05-06 11:09 49.16706 10.19696 20085 ft 374 kts 137°
2026-05-06 11:10 49.14980 10.22642 19735 ft 371 kts 137°
2026-05-06 11:10 49.13240 10.25568 19382 ft 367 kts 139°
2026-05-06 11:10 49.11510 10.28369 19035 ft 364 kts 139°
2026-05-06 11:10 49.09778 10.31140 18686 ft 362 kts 139°
2026-05-06 11:11 49.08042 10.33911 18335 ft 361 kts 139°
2026-05-06 11:11 49.06316 10.36674 17985 ft 359 kts 139°
2026-05-06 11:11 49.04614 10.39401 17637 ft 358 kts 138°
2026-05-06 11:11 49.02894 10.42158 17285 ft 357 kts 138°
2026-05-06 11:12 49.01196 10.44880 16937 ft 356 kts 138°
2026-05-06 11:12 48.99503 10.47587 16588 ft 355 kts 138°
2026-05-06 11:12 48.97787 10.50325 16235 ft 354 kts 138°
2026-05-06 11:12 48.96154 10.52925 15918 ft 353 kts 138°
2026-05-06 11:13 48.94470 10.55607 15773 ft 354 kts 138°
2026-05-06 11:13 48.92789 10.58285 15472 ft 352 kts 138°
2026-05-06 11:13 48.91099 10.60976 15171 ft 350 kts 138°
2026-05-06 11:13 48.89447 10.63601 14875 ft 348 kts 138°
2026-05-06 11:14 48.87941 10.65977 14603 ft 346 kts 139°
2026-05-06 11:14 48.86191 10.68749 14286 ft 343 kts 139°
2026-05-06 11:14 48.84551 10.71348 13936 ft 340 kts 139°
2026-05-06 11:14 48.82916 10.73936 13532 ft 338 kts 139°
2026-05-06 11:15 48.81412 10.76314 13172 ft 336 kts 139°
2026-05-06 11:15 48.79802 10.78853 12790 ft 333 kts 139°
2026-05-06 11:15 48.78212 10.81351 12416 ft 331 kts 139°
2026-05-06 11:15 48.76636 10.83822 12079 ft 327 kts 139°
2026-05-06 11:16 48.75123 10.86194 11777 ft 322 kts 139°
2026-05-06 11:16 48.73600 10.88580 11444 ft 318 kts 139°
2026-05-06 11:16 48.72085 10.90948 11093 ft 315 kts 138°
2026-05-06 11:16 48.70569 10.93316 10735 ft 312 kts 138°
2026-05-06 11:17 48.69053 10.95682 10383 ft 309 kts 138°
2026-05-06 11:17 48.67685 10.97818 10083 ft 305 kts 137°
2026-05-06 11:17 48.66192 11.00147 9651 ft 305 kts 137°
2026-05-06 11:17 48.64705 11.02461 9273 ft 302 kts 137°
2026-05-06 11:18 48.63264 11.04706 8974 ft 297 kts 136°
2026-05-06 11:18 48.61830 11.06941 8672 ft 293 kts 136°
2026-05-06 11:18 48.60435 11.09111 8373 ft 288 kts 136°
2026-05-06 11:18 48.59063 11.11243 8075 ft 284 kts 136°
2026-05-06 11:19 48.57684 11.13383 7772 ft 280 kts 136°
2026-05-06 11:19 48.56329 11.15483 7470 ft 277 kts 135°
2026-05-06 11:19 48.55027 11.17501 7176 ft 273 kts 135°
2026-05-06 11:19 48.53744 11.19487 6883 ft 269 kts 135°
2026-05-06 11:20 48.52456 11.21482 6584 ft 266 kts 135°
2026-05-06 11:20 48.51180 11.23456 6284 ft 262 kts 135°
2026-05-06 11:20 48.49932 11.25384 5988 ft 259 kts 134°
2026-05-06 11:20 48.48680 11.27318 5691 ft 260 kts 134°
2026-05-06 11:21 48.47422 11.29259 5385 ft 259 kts 134°
2026-05-06 11:21 48.46155 11.31212 5057 ft 257 kts 134°
2026-05-06 11:21 48.44915 11.33122 4782 ft 255 kts 134°
2026-05-06 11:21 48.43678 11.35027 4508 ft 254 kts 134°
2026-05-06 11:22 48.42456 11.36907 4235 ft 252 kts 134°
2026-05-06 11:22 48.41235 11.38785 4039 ft 250 kts 133°
2026-05-06 11:22 48.40089 11.40547 4014 ft 239 kts 133°
2026-05-06 11:22 48.38951 11.42294 4009 ft 230 kts 133°
2026-05-06 11:23 48.37833 11.44009 4140 ft 230 kts 133°
2026-05-06 11:23 48.36721 11.45713 4069 ft 230 kts 134°
2026-05-06 11:23 48.35581 11.47460 4031 ft 230 kts 134°
2026-05-06 11:23 48.34517 11.49221 4004 ft 229 kts 122°
2026-05-06 11:24 48.34065 11.51420 3992 ft 227 kts 90°
2026-05-06 11:24 48.34251 11.53663 3993 ft 205 kts 76°
2026-05-06 11:24 48.34534 11.55688 3986 ft 195 kts 76°
2026-05-06 11:24 48.34796 11.57677 3923 ft 194 kts 78°
2026-05-06 11:25 48.34993 11.59598 3710 ft 193 kts 80°
2026-05-06 11:25 48.35050 11.60269 3623 ft 193 kts 81°
2026-05-06 11:25 48.35297 11.63609 3196 ft 191 kts 82°
2026-05-06 11:25 48.35433 11.65504 2944 ft 183 kts 83°
2026-05-06 11:26 48.35564 11.67298 2738 ft 165 kts 83°
2026-05-06 11:26 48.35686 11.68944 2494 ft 150 kts 83°
2026-05-06 11:26 48.35804 11.70493 2298 ft 149 kts 83°
2026-05-06 11:26 48.35921 11.72039 2103 ft 148 kts 83°
2026-05-06 11:27 48.36040 11.73599 1906 ft 148 kts 83°
2026-05-06 11:27 48.36155 11.75126 1711 ft 147 kts 83°
2026-05-06 11:27 48.36271 11.76647 1541 ft 147 kts 83°
2026-05-06 11:27 48.36387 11.78130 1460 ft 123 kts 85°
2026-05-06 11:28 48.36446 11.78964 1458 ft 47 kts 84°
2026-05-06 11:28 48.36422 11.79347 1457 ft 31 kts 109°
2026-05-06 11:28 48.36363 11.79556 1455 ft 19 kts 114°
2026-05-06 11:28 48.36330 11.79670 1456 ft 8 kts 114°
2026-05-06 11:29 48.36307 11.79749 1456 ft 8 kts 114°
2026-05-06 11:29 48.36275 11.79839 1455 ft 11 kts 130°
2026-05-06 11:29 48.36230 11.79791 1455 ft 12 kts 273°
2026-05-06 11:29 48.36230 11.79663 1456 ft 12 kts 265°
2026-05-06 11:30 48.36219 11.79536 1458 ft 12 kts 263°
2026-05-06 11:30 48.36210 11.79420 1461 ft 10 kts 263°
2026-05-06 11:30 48.36187 11.79318 1462 ft 10 kts 215°
2026-05-06 11:30 48.36116 11.79309 1464 ft 10 kts 172°
2026-05-06 11:31 48.36046 11.79323 1467 ft 10 kts 173°
2026-05-06 11:31 48.35946 11.79342 1474 ft 17 kts 165°
2026-05-06 11:31 48.35826 11.79385 1475 ft 13 kts 173°
2026-05-06 11:31 48.35737 11.79401 1472 ft 12 kts 173°
2026-05-06 11:32 48.35664 11.79413 1469 ft 5 kts 193°
2026-05-06 11:32 48.35652 11.79370 1470 ft 4 kts 262°
2026-05-06 11:32 48.35648 11.79327 1470 ft 4 kts 263°
2026-05-06 11:32 48.35645 11.79284 1471 ft 3 kts 263°
2026-05-06 11:33 48.35644 11.79275 1471 ft 0 kts 263°